Flag for Luxembourg Weather past 2 weeks in Luxembourg, Luxembourg

Now
48 °F

Passing clouds.


Feels Like: 46 °F
Forecast: 45 / 58 °F
Wind: 6 mph from Northwest

Location: Luxembourg Airport

Current Time: May 26, 2015 at 12:39:56 AM

Latest Report: May 25, 2015 at 11:50 PM


Visibility: N/A

Pressure: 30.01 "Hg

Humidity: 94%

Dew point: 46 °F

Location of LuxembourgLocation

Historic Weather in Luxembourg — Graph

°F

Luxembourg temperature yesterday

Maximum temperature yesterday: 61 °F (at 4:20 PM)
Minimum temperature yesterday: 48 °F (at 4:50 AM)
Average temperature yesterday: 54 °F

Past Weeks' High & Low Weather Summary

 TemperatureHumidityPressure
High77 °F (May 12, 1:50 PM)100% (May 14, 11:50 PM)30.33 "Hg (May 14, 11:50 PM)
Low37 °F (May 21, 5:20 AM)32% (May 21, 4:50 PM)29.71 "Hg (May 18, 9:20 PM)
Average56 °F70%30.07 "Hg
* Reported May 10 11:50 PM — May 25 11:20 PM, Luxembourg, Weather by CustomWeather, © 2015

Note: Actual official high and low records may vary slightly from our data, if they occured in-between our weather recording intervals... More about our weather records

Advertising

Luxembourg weather history for previous 24 hours

 ConditionsComfort  
Time TempWeatherWind HumidityBarometerVisibility
11:20 PM
Mon, May 25
50 °FClear.5 mph94%30.01 "Hg10 mi
10:50 PM50 °FPassing clouds.5 mph94%30.01 "HgN/A
10:20 PM52 °FSunny.5 mph94%30.01 "Hg10 mi
9:50 PM54 °FSunny.3 mph94%29.98 "Hg10 mi
9:20 PM54 °FScattered clouds.2 mph94%29.98 "HgN/A
8:50 PM55 °FScattered clouds.3 mph94%29.98 "HgN/A
8:20 PM55 °FSunny.3 mph94%29.98 "Hg10 mi
7:50 PM54 °FSunny.3 mph94%29.98 "Hg10 mi
7:20 PM55 °FSunny.3 mph88%29.95 "Hg10 mi
6:50 PM55 °FPartly sunny.No wind88%29.95 "HgN/A
6:20 PM54 °FBroken clouds.No wind94%29.95 "HgN/A
5:50 PM52 °FLight rain. Partly sunny.No wind100%29.98 "Hg6 mi
5:20 PM52 °FThunderstorms. Fog.6 mph94%29.98 "Hg1 mi
4:50 PM61 °FThundershowers. Scattered clouds.2 mph68%29.95 "HgN/A
4:20 PM61 °FScattered clouds.2 mph72%29.95 "HgN/A
3:50 PM57 °FPartly sunny.5 mph82%29.95 "HgN/A
3:20 PM55 °FPartly sunny.6 mph82%29.98 "HgN/A
2:50 PM55 °FPartly sunny.7 mph88%29.98 "HgN/A
2:20 PM55 °FPartly sunny.8 mph88%29.98 "HgN/A
1:50 PM57 °FBroken clouds.7 mph82%29.98 "HgN/A
1:20 PM57 °FPartly sunny.7 mph82%29.98 "HgN/A
12:50 PM57 °FLight rain. Partly sunny.7 mph82%29.98 "HgN/A
12:20 PM55 °FRain. Broken clouds.8 mph88%29.98 "Hg4 mi
11:50 AM57 °FLight rain. Broken clouds.9 mph82%29.98 "HgN/A
11:20 AM59 °FPartly sunny.8 mph68%29.98 "HgN/A
10:50 AM59 °FPartly sunny.8 mph72%29.98 "HgN/A
10:20 AM59 °FPartly sunny.7 mph72%30.01 "HgN/A
9:50 AM57 °FBroken clouds.5 mph67%30.01 "HgN/A
9:20 AM55 °FPartly sunny.6 mph67%30.01 "HgN/A
8:50 AM55 °FPartly sunny.6 mph67%30.01 "HgN/A
8:20 AM54 °FPartly sunny.3 mph72%30.01 "HgN/A
7:50 AM52 °FPartly sunny.3 mph82%30.01 "HgN/A
7:20 AM52 °FSunny.5 mph82%30.01 "Hg10 mi
6:50 AM50 °FSunny.1 mph88%30.01 "Hg10 mi
6:20 AM50 °FPassing clouds.5 mph82%30.01 "HgN/A
5:50 AM48 °FClear.3 mph87%30.01 "Hg10 mi
5:20 AM50 °FClear.2 mph82%30.01 "Hg10 mi
4:50 AM48 °FClear.1 mph87%30.01 "Hg10 mi
4:20 AM50 °FCool.2 mph82%30.01 "HgN/A
3:50 AM50 °FClear.7 mph82%30.01 "Hg10 mi
3:20 AM52 °FCool.6 mph77%30.01 "HgN/A
2:50 AM52 °FCool.7 mph82%30.04 "HgN/A
2:20 AM50 °FPassing clouds.6 mph88%30.04 "HgN/A
1:50 AM52 °FClear.5 mph82%30.04 "Hg10 mi
1:20 AM52 °FClear.7 mph88%30.04 "Hg10 mi
12:50 AM54 °FClear.6 mph82%30.04 "Hg10 mi
12:20 AM55 °FClear.2 mph72%30.04 "Hg10 mi
Weather by CustomWeather, © 2015

See weather overviewHow to use our weather pages